F4JFI-13 Weather Reports


time (UTC)temp
C
wind
direction
speed
KPH
gust
KPH
rain 1hr
cm
rain 24hr
cm
rain mn
cm
humidity
%
barometer
mb
20260510021207 14 100 0.0 0.0 0.00 0.00 0.00 76 1007.4
20260510020208 14 124 0.0 0.0 0.00 0.00 0.00 76 1007.4
20260510015208 14 124 0.0 0.0 0.00 0.00 0.00 78 1007.4
20260510014208 14 138 0.0 0.0 0.00 0.00 0.00 78 1007.4
20260510013208 14 116 0.0 0.0 0.00 0.00 0.00 80 1007.4
20260510012218 14 118 1.6 0.0 0.00 0.00 0.00 80 1007.4
20260510011207 14 130 1.6 0.0 0.00 0.00 0.00 78 1007.4
20260510010208 14 108 1.6 0.0 0.00 0.00 0.00 78 1007.4
20260510005208 14 112 1.6 0.0 0.00 0.00 0.00 78 1007.6
20260510004208 14 92 0.0 0.0 0.00 0.00 0.00 78 1007.6
20260510003208 14 100 0.0 0.0 0.00 0.00 0.00 78 1007.8
20260510002217 14 100 0.0 0.0 0.00 0.00 0.00 78 1008.0
20260510001208 14 100 0.0 0.0 0.00 0.00 0.00 76 1008.0
20260510000208 15 100 0.0 0.0 0.00 0.00 0.00 74 1008.0
20260509235208 15 96 0.0 0.0 0.00 0.00 0.00 72 1008.2
20260509234208 15 96 0.0 0.0 0.00 0.00 0.00 72 1008.2
20260509233208 15 96 0.0 0.0 0.00 0.00 0.00 70 1008.2
20260509232218 15 96 0.0 0.0 0.00 0.00 0.00 72 1008.2
20260509231208 16 96 0.0 0.0 0.00 0.00 0.00 70 1008.2
20260509230208 16 96 0.0 0.0 0.00 0.00 0.00 66 1008.2
20260509225208 16 96 0.0 0.0 0.00 0.00 0.00 64 1008.2
20260509224208 16 96 0.0 0.0 0.00 0.00 0.00 64 1008.2
20260509223208 16 96 0.0 0.0 0.00 0.00 0.00 62 1008.2
20260509222218 17 96 0.0 0.0 0.00 0.00 0.00 62 1008.0
20260509221208 17 102 0.0 0.0 0.00 0.00 0.00 62 1008.0
20260509220209 17 96 0.0 0.0 0.00 0.00 0.00 62 1007.8
20260509215208 17 96 0.0 0.0 0.00 0.00 0.00 62 1008.0
20260509214208 17 192 0.0 0.0 0.00 0.00 0.00 64 1008.0
20260509213208 16 114 1.6 0.0 0.00 0.00 0.00 66 1008.2
20260509212222 16 102 0.0 0.0 0.00 0.00 0.00 72 1008.2
20260509211208 16 84 0.0 0.0 0.00 0.00 0.00 74 1008.2
20260509210208 16 144 0.0 0.0 0.00 0.00 0.00 74 1008.4
20260509205208 16 144 0.0 0.0 0.00 0.00 0.00 74 1008.4
20260509204208 16 144 0.0 0.0 0.00 0.00 0.00 74 1008.4
20260509203208 16 144 0.0 0.0 0.00 0.00 0.00 72 1008.4
20260509202213 17 144 0.0 0.0 0.00 0.00 0.00 72 1008.2
20260509201208 17 144 0.0 0.0 0.00 0.00 0.00 72 1008.0
20260509200208 17 144 0.0 0.0 0.00 0.00 0.00 70 1008.0
20260509195208 18 144 0.0 0.0 0.00 0.00 0.00 70 1007.8
20260509194208 18 144 0.0 0.0 0.00 0.00 0.00 68 1007.6
20260509193208 20 144 0.0 0.0 0.00 0.00 0.00 66 1007.4
20260509192218 20 144 0.0 0.0 0.00 0.00 0.00 62 1007.4
20260509191208 20 144 0.0 0.0 0.00 0.00 0.00 62 1007.2
20260509190208 21 206 0.0 0.0 0.00 0.00 0.00 60 1007.2
20260509185208 21 116 0.0 0.0 0.00 0.00 0.00 60 1007.0
20260509184208 21 116 1.6 0.0 0.00 0.00 0.00 60 1006.8
20260509183208 21 112 1.6 0.0 0.00 0.00 0.00 58 1006.8
20260509182218 22 52 1.6 0.0 0.00 0.00 0.00 58 1006.8
20260509181208 22 160 3.2 0.0 0.00 0.00 0.00 56 1006.8
20260509180208 22 106 1.6 0.0 0.00 0.00 0.00 56 1006.6
20260509175208 22 136 1.6 0.0 0.00 0.00 0.00 56 1006.6
20260509174208 23 182 3.2 0.0 0.00 0.00 0.00 54 1006.4
20260509173208 23 110 1.6 0.0 0.00 0.00 0.00 56 1006.4
20260509172213 23 32 3.2 0.0 0.00 0.00 0.00 56 1006.4
20260509171209 23 82 4.8 0.0 0.00 0.00 0.00 56 1006.2
20260509170209 23 56 3.2 0.0 0.00 0.00 0.00 54 1006.2
20260509165208 23 122 6.4 0.0 0.00 0.00 0.00 54 1006.2
20260509164208 24 86 3.2 0.0 0.00 0.00 0.00 50 1006.2
20260509163208 24 32 1.6 0.0 0.00 0.00 0.00 52 1006.2
20260509162208 24 184 3.2 0.0 0.00 0.00 0.00 52 1006.2
20260509161208 24 100 1.6 0.0 0.00 0.00 0.00 52 1006.2
20260509160208 24 138 1.6 0.0 0.00 0.00 0.00 50 1006.4
20260509155208 24 112 3.2 0.0 0.00 0.00 0.00 52 1006.4
20260509154208 24 86 6.4 0.0 0.00 0.00 0.00 50 1006.4
20260509153208 24 56 1.6 0.0 0.00 0.00 0.00 54 1006.6
20260509152217 24 180 3.2 0.0 0.00 0.00 0.00 50 1006.6
20260509151208 24 94 4.8 0.0 0.00 0.00 0.00 48 1006.6
20260509150207 25 94 3.2 0.0 0.00 0.00 0.00 48 1006.8
20260509145208 25 154 4.8 0.0 0.00 0.00 0.00 52 1006.8
20260509144208 24 128 4.8 0.0 0.00 0.00 0.00 50 1006.8
20260509143208 24 72 3.2 0.0 0.00 0.00 0.00 52 1007.0
20260509142218 24 132 4.8 0.0 0.00 0.00 0.00 48 1007.2
20260509141208 24 170 4.8 0.0 0.00 0.00 0.00 50 1007.2
20260509140208 24 94 4.8 0.0 0.00 0.00 0.00 50 1007.4
20260509135208 25 178 1.6 0.0 0.00 0.00 0.00 50 1007.6
20260509134208 24 114 3.2 0.0 0.00 0.00 0.00 50 1007.6
20260509133208 24 248 4.8 0.0 0.00 0.00 0.00 52 1007.8
20260509132217 24 152 3.2 0.0 0.00 0.00 0.00 54 1007.8
20260509131208 24 180 3.2 0.0 0.00 0.00 0.00 54 1007.8
20260509130207 24 64 3.2 0.0 0.00 0.00 0.00 52 1008.0
20260509125208 23 66 1.6 0.0 0.00 0.00 0.00 56 1008.2
20260509124208 23 88 3.2 0.0 0.00 0.00 0.00 58 1008.2
20260509123208 23 230 4.8 0.0 0.00 0.00 0.00 56 1008.4
20260509122218 23 226 3.2 0.0 0.00 0.00 0.00 56 1008.4
20260509121208 23 68 4.8 0.0 0.00 0.00 0.00 58 1008.4
20260509120208 23 132 3.2 0.0 0.00 0.00 0.00 60 1008.4
20260509115208 23 72 3.2 0.0 0.00 0.00 0.00 56 1008.6
20260509114208 23 216 3.2 0.0 0.00 0.00 0.00 58 1008.6
20260509113208 22 210 4.8 0.0 0.00 0.00 0.00 62 1008.6
20260509112217 23 150 3.2 0.0 0.00 0.00 0.00 58 1008.8
20260509111208 23 102 4.8 0.0 0.00 0.00 0.00 56 1008.8
20260509110208 23 134 1.6 0.0 0.00 0.00 0.00 58 1009.0
20260509105208 22 178 4.8 0.0 0.00 0.00 0.00 58 1009.0
20260509104207 22 212 3.2 0.0 0.00 0.00 0.00 60 1009.2
20260509103208 22 94 3.2 0.0 0.00 0.00 0.00 60 1009.4
20260509102208 22 206 1.6 0.0 0.00 0.00 0.00 60 1009.4
20260509101208 22 120 4.8 0.0 0.00 0.00 0.00 60 1009.6
20260509100208 21 242 1.6 0.0 0.00 0.00 0.00 60 1009.8
20260509095208 21 112 3.2 0.0 0.00 0.00 0.00 64 1009.8
20260509094208 21 108 3.2 0.0 0.00 0.00 0.00 62 1010.0
20260509093208 21 50 3.2 0.0 0.00 0.00 0.00 62 1009.8
20260509092213 21 218 3.2 0.0 0.00 0.00 0.00 62 1010.0
20260509091208 21 112 4.8 0.0 0.00 0.00 0.00 62 1009.8
20260509090208 21 114 3.2 0.0 0.00 0.00 0.00 62 1009.6
20260509085208 20 106 3.2 0.0 0.00 0.00 0.00 62 1009.6
20260509084208 20 88 3.2 0.0 0.00 0.00 0.00 66 1009.8
20260509083208 18 88 3.2 0.0 0.00 0.00 0.00 64 1009.8
20260509082208 18 194 3.2 0.0 0.00 0.00 0.00 68 1009.8
20260509081208 18 96 3.2 0.0 0.00 0.00 0.00 68 1010.0
20260509080208 17 52 3.2 0.0 0.00 0.00 0.00 70 1010.0
20260509075208 17 136 1.6 0.0 0.00 0.00 0.00 70 1010.2
20260509074208 16 106 3.2 0.0 0.00 0.00 0.00 74 1010.4
20260509073208 15 116 1.6 0.0 0.00 0.00 0.00 74 1010.4
20260509072208 14 140 3.2 0.0 0.00 0.00 0.00 78 1010.6
20260509071208 14 110 3.2 0.0 0.00 0.00 0.00 76 1010.6
20260509070208 14 130 3.2 0.0 0.00 0.00 0.00 78 1010.8
20260509065209 13 108 4.8 0.0 0.00 0.00 0.00 78 1010.8
20260509064208 13 84 4.8 0.0 0.00 0.00 0.00 78 1011.0
20260509063208 13 114 1.6 0.0 0.00 0.00 0.00 80 1011.0
20260509062213 12 36 0.0 0.0 0.00 0.00 0.00 82 1011.0
20260509061208 12 68 0.0 0.0 0.00 0.00 0.00 84 1011.0
20260509060208 11 120 0.0 0.0 0.00 0.00 0.00 88 1011.0
20260509055208 11 120 0.0 0.0 0.00 0.00 0.00 90 1011.0
20260509054208 10 120 0.0 0.0 0.00 0.00 0.00 92 1011.0
20260509053208 10 164 0.0 0.0 0.00 0.00 0.00 92 1011.0
20260509052212 10 164 0.0 0.0 0.00 0.00 0.00 92 1011.0
20260509051207 10 164 0.0 0.0 0.00 0.00 0.00 92 1010.8
20260509050208 10 164 0.0 0.0 0.00 0.00 0.00 92 1010.8
20260509045208 10 164 0.0 0.0 0.00 0.00 0.00 92 1010.6
20260509044208 10 164 0.0 0.0 0.00 0.00 0.00 90 1010.6
20260509043208 10 164 0.0 0.0 0.00 0.00 0.00 90 1010.6
20260509042212 10 164 0.0 0.0 0.00 0.00 0.00 90 1010.4
20260509041207 10 164 0.0 0.0 0.00 0.00 0.00 90 1010.4
20260509040208 10 164 0.0 0.0 0.00 0.00 0.00 90 1010.4
20260509035208 10 164 0.0 0.0 0.00 0.00 0.00 90 1010.2
20260509034208 10 164 0.0 0.0 0.00 0.00 0.00 90 1010.2
20260509033208 10 164 0.0 0.0 0.00 0.00 0.00 90 1010.4
20260509032218 10 164 0.0 0.0 0.00 0.00 0.00 90 1010.4
20260509031207 11 164 0.0 0.0 0.00 0.00 0.00 90 1010.4
20260509030208 11 164 0.0 0.0 0.00 0.00 0.00 88 1010.6
20260509025208 11 164 0.0 0.0 0.00 0.00 0.00 88 1010.6
20260509024208 11 164 0.0 0.0 0.00 0.00 0.00 88 1010.6
20260509023208 11 164 0.0 0.0 0.00 0.00 0.00 88 1010.4
20260509022213 11 164 0.0 0.0 0.00 0.00 0.00 88 1010.6